Location: Steilacoom
(47.1700°N, 122.5700°W)
Time: 02:08:50
(UTC-07:00)

OTV 5 (USA 277) - Visible Passes

Search period start: 17 October 2018 00:00
Search period end: 27 October 2018 00:00
Orbit: 387 x 394 km, 54.5° (Epoch: 08 September)

Date Brightness Start Highest point End Pass type
(mag) Time Alt. Az. Time Alt. Az. Time Alt. Az.
17 Oct ? 05:19:25 19° SE 05:19:25 19° SE 05:20:31 10° SE visible
18 Oct ? 05:58:21 11° SSW 05:58:21 11° SSW 05:58:39 10° S visible
23 Oct ? 19:27:53 10° SSE 19:28:34 12° SSE 19:28:34 12° SSE visible
24 Oct ? 20:05:31 10° SW 20:07:12 26° SSW 20:07:12 26° SSW visible
25 Oct ? 19:09:43 10° S 19:12:19 23° SE 19:13:17 20° ESE visible
25 Oct ? 20:44:54 10° WSW 20:45:41 16° WSW 20:45:41 16° WSW visible
26 Oct ? 19:48:23 10° SW 19:51:35 83° SE 19:51:39 82° ESE visible
